[[{"header":{"parameterUnit":"m.s-1","parameterCategory":1,"la1":30.2991,"la2":30.254,"lo1":-89.0895,"lo2":-89.0444,"dy":0.0017,"dx":0.0017,"nx":28,"ny":28,"refTime":"2024-10-03T09:00:00:Z","depth":0,"parameterNumber":2,"parameterNumberName":"U-component_of_WINDS"},"data":[0,0,0,0,0,0,0,0,0,0,0,0,0,0,0,0,0,0,0,0,0,0,0,0,0,0,0,0,0,0,0,0,0,0,0,0,0,0,0,0,0,0,0,0,0,0,0,0,0,0,0,0,0,0,0,0,0,0,-2.8189,-2.819,0,-2.8296,-2.8297,-2.8299,-2.8227,-2.8224,-2.8221,-2.8218,-2.8331,-2.8337,-2.8343,0,0,0,0,0,0,0,0,0,0,0,0,0,-2.7924,-2.7929,-2.8188,-2.819,-2.8191,-2.8296,-2.8297,-2.8299,-2.8228,-2.8224,-2.822,-2.8216,-2.8329,-2.8336,-2.8344,0,0,0,0,0,0,0,0,0,0,0,0,0,-2.8036,-2.7931,-2.8188,-2.8168,-2.8167,-2.8296,-2.8297,-2.8299,-2.8229,-2.8224,-2.8219,-2.8214,-2.8327,-2.8336,-2.8345,-2.85,0,0,-2.8373,-2.8377,0,0,0,0,0,0,0,0,-2.803,-2.8046,-2.817,-2.817,-2.8169,-2.8243,-2.8246,-2.8367,-2.823,-2.8206,-2.8218,-2.8212,-2.8306,-2.8317,-2.8348,-2.8505,-2.851,-2.8373,-2.8379,-2.8383,-2.8386,0,0,0,0,0,0,0,-2.8022,-2.8041,-2.8231,-2.8172,-2.8171,-2.8155,-2.8165,-2.8268,-2.8282,-2.8207,-2.8202,-2.8216,-2.8305,-2.8339,-2.835,-2.8511,-2.8373,-2.8381,-2.8387,-2.8391,-2.8802,-2.8807,0,0,0,0,0,0,-2.8016,-2.8035,-2.8228,-2.8234,-2.8086,-2.8163,-2.8175,-2.8224,-2.8281,-2.8285,-2.822,-2.8212,-2.8326,-2.8339,-2.8354,-2.854,-2.8383,-2.8391,-2.8397,-2.8796,-2.8803,-2.8809,0,0,0,0,0,0,-2.801,-2.8033,-2.8223,-2.8133,-2.8156,-2.8173,-2.8229,-2.8229,-2.8263,-2.829,-2.8293,-2.8252,-2.8323,-2.8341,-2.8464,-2.8543,-2.8396,-2.8404,-2.879,-2.8798,-2.8806,-2.8913,0,0,0,0,0,0,-2.8003,-2.8032,-2.809,-2.8135,-2.8161,-2.8331,-2.8234,-2.8235,-2.8279,-2.827,-2.8321,-2.8325,-2.832,-2.8451,-2.8473,-2.8553,-2.8411,-2.8783,-2.8794,-2.8803,-2.8902,-2.8924,-2.8942,0,0,0,0,0,-2.7994,-2.8117,-2.8094,-2.8118,-2.8235,-2.8336,-2.8351,-2.8342,-2.8285,-2.8345,-2.8362,-2.8324,-2.853,-2.8464,-2.8488,-2.8572,-2.8778,-2.8791,-2.8802,-2.8894,-2.892,-2.8941,0,0,0,0,0,0,-2.8083,-2.8122,-2.8097,-2.8238,-2.8284,-2.8324,-2.8399,-2.8369,-2.8433,-2.8422,-2.8409,-2.8421,-2.855,-2.8573,-2.8498,-2.8725,-2.8645,-2.8663,-2.8706,-2.8731,-2.875,-2.8743,-2.8419,0,0,0,0,0,-2.8118,-2.8196,-2.8227,-2.8349,-2.8373,-2.8382,-2.8426,-2.8414,-2.8462,-2.8481,-2.8507,-2.8556,-2.8631,-2.8682,-2.8753,-2.8904,-2.8915,-2.8974,-2.8993,-2.901,-2.9026,-2.9109,-2.9136,-2.8849,-2.8849,-2.8849,0,0,-2.8194,-2.8225,-2.8275,-2.8367,-2.8401,-2.8484,-2.8399,-2.8489,-2.8551,-2.8495,-2.8613,-2.8634,-2.8687,-2.8825,-2.8887,-2.8848,-2.9107,-2.9025,-2.9038,-2.9046,-2.9125,-2.9152,-2.9176,-2.8857,-2.8856,-2.8854,0,0,-2.8373,-2.8404,-2.8509,-2.8545,-2.8597,-2.8602,-2.8627,-2.8671,-2.8683,-2.88,-2.8761,-2.8833,-2.8964,-2.9004,-2.9041,-2.9234,-2.9202,-2.9258,-2.9362,-2.9443,-2.9466,-2.9486,-2.9557,-2.9583,-2.9273,-2.9274,-2.9274,0,-2.8461,-2.8582,-2.8567,-2.8661,-2.8703,-2.8655,-2.8762,-2.8797,-2.8871,-2.8902,-2.8856,-2.9019,-2.9051,-2.9198,-2.9246,-2.9277,-2.9306,-2.9253,-2.9464,-2.9484,-2.9502,-2.957,-2.9597,-2.928,-2.928,-2.9279,-2.9278,0,-2.8688,-2.8773,-2.8852,-2.8923,-2.8974,-2.9074,-2.9075,-2.9128,-2.9112,-2.9122,-2.9243,-2.9279,-2.9357,-2.9391,-2.9376,-2.9537,-2.9511,-2.9465,-2.9385,-2.9536,-2.96,-2.9626,-2.929,-2.9287,-2.9285,-2.9284,0,0,-2.893,-2.899,-2.902,-2.9052,-2.9105,-2.9171,-2.9269,-2.9344,-2.9391,-2.9442,-2.9525,-2.9636,-2.9593,-2.9636,-2.9625,-2.9696,-2.9849,-2.9641,-2.9642,-2.9681,-3.0031,-3.0067,-3.0097,-2.9826,-2.9831,-2.9835,-3.0027,0,-2.9114,-2.9284,-2.9273,-2.9434,-2.9513,-2.9467,-2.9553,-2.9595,-2.9607,-2.9676,-2.9689,-2.9769,-2.9705,-2.9731,-2.9799,-2.9816,-2.992,-2.9802,-2.9906,-2.991,-2.9897,-3.013,-3.0169,-3.0348,-3.0051,-3.0055,-3.0059,0,-2.9353,-2.9412,-2.9581,-2.9623,-2.9655,-2.9732,-2.98,-2.9866,-2.9914,-2.9917,-2.9964,-2.9942,-3.0041,-2.9956,-3.0095,-3.0015,-3.0056,-3.0071,-3.0078,-3.009,-2.9996,-3.0151,-3.0405,-3.0433,-3.0097,-3.0094,-3.0091,0,-2.9515,-2.9637,-2.9754,-2.9782,-2.9833,-2.9888,-2.9912,-2.9955,-3.0001,-3.006,-3.009,-3.0161,-3.02,-3.0256,-3.0253,-3.0191,-3.0395,-3.0309,-3.0402,-3.0403,-3.045,-3.0448,-3.0717,-3.0472,-3.0471,-3.0471,-3.047,0,-2.9724,-2.983,-2.9827,-2.99,-3.0016,-3.0002,-3.0119,-3.0137,-3.0175,-3.025,-3.0214,-3.0286,-3.0277,-3.035,-3.0348,-3.0464,-3.0481,-3.0488,-3.0487,-3.0493,-3.0493,-3.0523,-3.0511,-3.0478,-3.0476,-3.0475,-3.0474,0,-2.9927,-2.9929,-3.0054,-3.0091,-3.0103,-3.0188,-3.022,-3.0289,-3.0296,-3.0393,-3.0415,-3.0427,-3.0511,-3.0513,-3.0609,-3.0608,-3.075,-3.0733,-3.0734,-3.0732,-3.0826,-3.0819,-3.1127,-3.1168,-3.0893,-3.0896,-3.0898,0,-3.0062,-3.0142,-3.0187,-3.0235,-3.0262,-3.0339,-3.0386,-3.0374,-3.0424,-3.0484,-3.0546,-3.0626,-3.069,-3.0825,-3.0844,-3.0917,-3.0904,-3.1007,-3.0915,-3.0919,-3.0909,-3.0905,-3.0914,-3.1026,-3.1029,-3.1032,-3.1034,0,-3.0302,-3.0298,-3.0366,-3.0435,-3.0491,-3.0545,-3.0594,-3.0635,-3.0629,-3.0688,-3.0772,-3.0821,-3.0919,-3.0999,-3.107,-3.1096,-3.1066,-3.1062,-3.1088,-3.1097,-3.1095,-3.11,-3.0786,-3.1056,-3.1053,-3.1052,-3.1051,-3.105,-3.0476,-3.0546,-3.0589,-3.0666,-3.0701,-3.0748,-3.0815,-3.083,-3.09,-3.0978,-3.0967,-3.1062,-3.1107,-3.1199,-3.123,-3.1305,-3.1269,-3.1306,-3.1316,-3.1327,-3.1338,-3.108,-3.1317,-3.1317,-3.1316,-3.1316,-3.1315,0,-3.0716,-3.0741,-3.0812,-3.0882,-3.0943,-3.0906,-3.0958,-3.1012,-3.1096,-3.114,-3.1203,-3.1301,-3.1378,-3.1402,-3.1477,-3.1533,-3.1521,-3.1553,-3.1551,-3.1558,-3.1364,-3.1335,-3.1562,-3.1562,-3.1562,-3.1562,-3.1562,-3.1562,-3.0849,-3.0965,-3.0967,-3.11,-3.1124,-3.1216,-3.125,-3.1293,-3.1328,-3.1439,-3.1503,-3.1517,-3.1554,-3.1631,-3.1701,-3.1706,-3.1737,-3.1776,-3.1776,-3.1596,-3.1571,-3.1547,-3.152,-3.1782,-3.1782,-3.1963,-3.1965,-3.1966]},{"header":{"parameterUnit":"m.s-1","parameterCategory":1,"la1":30.2991,"la2":30.254,"lo1":-89.0895,"lo2":-89.0444,"dy":0.0017,"dx":0.0017,"nx":28,"ny":28,"refTime":"2024-10-03T09:00:00:Z","depth":0,"parameterNumber":3,"parameterNumberName":"V-component_of_WINDS"},"data":[0,0,0,0,0,0,0,0,0,0,0,0,0,0,0,0,0,0,0,0,0,0,0,0,0,0,0,0,0,0,0,0,0,0,0,0,0,0,0,0,0,0,0,0,0,0,0,0,0,0,0,0,0,0,0,0,0,0,-3.7949,-3.795,0,-3.8009,-3.8009,-3.801,-3.7977,-3.7976,-3.7974,-3.7972,-3.803,-3.8033,-3.8036,0,0,0,0,0,0,0,0,0,0,0,0,0,-3.7803,-3.7806,-3.7949,-3.795,-3.7951,-3.8009,-3.8009,-3.801,-3.7977,-3.7975,-3.7973,-3.7972,-3.8029,-3.8032,-3.8036,0,0,0,0,0,0,0,0,0,0,0,0,0,-3.7865,-3.7807,-3.7949,-3.7941,-3.7941,-3.8008,-3.8009,-3.801,-3.7978,-3.7975,-3.7973,-3.7971,-3.8028,-3.8032,-3.8037,-3.8114,0,0,-3.8051,-3.8053,0,0,0,0,0,0,0,0,-3.7861,-3.787,-3.7942,-3.7942,-3.7942,-3.7983,-3.7979,-3.8045,-3.7978,-3.7964,-3.7972,-3.7969,-3.8016,-3.8021,-3.8038,-3.8116,-3.8119,-3.8051,-3.8054,-3.8056,-3.8057,0,0,0,0,0,0,0,-3.7857,-3.7867,-3.7973,-3.7943,-3.7943,-3.7933,-3.794,-3.7991,-3.8003,-3.7965,-3.7963,-3.797,-3.8016,-3.8034,-3.8039,-3.812,-3.8051,-3.8055,-3.8058,-3.806,-3.8262,-3.8264,0,0,0,0,0,0,-3.7854,-3.7864,-3.7971,-3.7974,-3.7895,-3.7938,-3.7945,-3.7972,-3.8002,-3.8004,-3.7972,-3.7969,-3.8027,-3.8034,-3.8041,-3.8132,-3.8056,-3.806,-3.8063,-3.8259,-3.8262,-3.8265,0,0,0,0,0,0,-3.7851,-3.7864,-3.7968,-3.7919,-3.7931,-3.7943,-3.7974,-3.7975,-3.7993,-3.8008,-3.8009,-3.7989,-3.8025,-3.8034,-3.8095,-3.8133,-3.8062,-3.8066,-3.8256,-3.826,-3.8264,-3.8314,0,0,0,0,0,0,-3.7847,-3.7863,-3.7893,-3.792,-3.7934,-3.8024,-3.7977,-3.7978,-3.8001,-3.7997,-3.8024,-3.8026,-3.8024,-3.8089,-3.81,-3.8138,-3.807,-3.8253,-3.8258,-3.8263,-3.8309,-3.832,-3.8328,0,0,0,0,0,-3.7842,-3.7905,-3.7895,-3.7908,-3.7973,-3.8026,-3.8034,-3.8032,-3.8004,-3.8034,-3.8044,-3.8025,-3.8127,-3.8095,-3.8108,-3.8148,-3.825,-3.8256,-3.8262,-3.8305,-3.8318,-3.8328,0,0,0,0,0,0,-3.7882,-3.7908,-3.7898,-3.7972,-3.7997,-3.802,-3.8058,-3.8045,-3.8078,-3.8072,-3.8067,-3.8073,-3.8137,-3.8148,-3.8112,-3.8223,-3.8184,-3.8193,-3.8213,-3.8225,-3.8234,-3.8229,-3.8074,0,0,0,0,0,-3.79,-3.7942,-3.7962,-3.8025,-3.8039,-3.8046,-3.8069,-3.8065,-3.8091,-3.8101,-3.8115,-3.8139,-3.8176,-3.8201,-3.8237,-3.8311,-3.8315,-3.8344,-3.8354,-3.8361,-3.8369,-3.8407,-3.842,-3.8285,-3.8285,-3.8285,0,0,-3.7936,-3.7956,-3.7983,-3.8034,-3.8053,-3.8095,-3.8055,-3.8102,-3.8133,-3.8108,-3.8166,-3.8177,-3.8204,-3.8271,-3.8302,-3.8283,-3.8407,-3.8369,-3.8375,-3.8378,-3.8414,-3.8427,-3.8438,-3.8289,-3.8288,-3.8287,0,0,-3.8024,-3.8044,-3.8099,-3.8118,-3.8148,-3.8152,-3.8165,-3.819,-3.8197,-3.8256,-3.8237,-3.8273,-3.8338,-3.8357,-3.8375,-3.8469,-3.8453,-3.8481,-3.853,-3.8567,-3.8578,-3.8587,-3.8619,-3.8631,-3.8488,-3.8488,-3.8488,0,-3.8066,-3.813,-3.8128,-3.8176,-3.8198,-3.8177,-3.8231,-3.825,-3.8289,-3.8304,-3.8283,-3.8363,-3.838,-3.845,-3.8473,-3.8489,-3.8502,-3.8478,-3.8577,-3.8586,-3.8595,-3.8625,-3.8638,-3.8491,-3.8491,-3.8491,-3.849,0,-3.8179,-3.8224,-3.8264,-3.8303,-3.8329,-3.838,-3.8383,-3.841,-3.8403,-3.841,-3.8468,-3.8488,-3.8526,-3.8542,-3.8536,-3.8612,-3.8599,-3.8578,-3.8539,-3.8611,-3.8639,-3.8651,-3.8496,-3.8495,-3.8494,-3.8493,0,0,-3.8295,-3.8331,-3.8346,-3.8362,-3.8393,-3.8427,-3.8475,-3.8513,-3.8536,-3.8563,-3.8603,-3.8657,-3.8637,-3.8658,-3.8653,-3.8686,-3.8757,-3.866,-3.8661,-3.8677,-3.884,-3.8856,-3.8869,-3.8747,-3.8749,-3.8751,-3.8837,0,-3.8384,-3.8471,-3.8469,-3.8549,-3.8589,-3.8569,-3.8611,-3.8634,-3.864,-3.8674,-3.8681,-3.8719,-3.869,-3.8702,-3.8734,-3.8742,-3.879,-3.8736,-3.8782,-3.8784,-3.8775,-3.8884,-3.8901,-3.8982,-3.8849,-3.8851,-3.8852,0,-3.8501,-3.8532,-3.8616,-3.8639,-3.8656,-3.8694,-3.8727,-3.8761,-3.8785,-3.8787,-3.881,-3.8799,-3.8847,-3.8807,-3.8871,-3.8835,-3.8853,-3.886,-3.8863,-3.8866,-3.8822,-3.889,-3.9008,-3.902,-3.887,-3.8868,-3.8867,0,-3.8575,-3.8638,-3.8696,-3.8711,-3.874,-3.8767,-3.878,-3.8802,-3.8824,-3.8853,-3.8867,-3.8901,-3.8919,-3.8945,-3.8943,-3.8915,-3.9008,-3.8969,-3.901,-3.901,-3.903,-3.9028,-3.9152,-3.9043,-3.9043,-3.9043,-3.9043,0,-3.8675,-3.8726,-3.873,-3.8766,-3.8822,-3.8819,-3.8874,-3.8884,-3.8904,-3.8939,-3.8924,-3.8958,-3.8954,-3.8988,-3.8987,-3.9039,-3.9048,-3.9049,-3.9048,-3.905,-3.905,-3.9062,-3.9056,-3.9046,-3.9046,-3.9045,-3.9044,0,-3.8767,-3.8772,-3.8834,-3.8856,-3.8862,-3.8903,-3.8921,-3.8954,-3.8959,-3.9004,-3.9014,-3.9022,-3.906,-3.9061,-3.9105,-3.9104,-3.9168,-3.9161,-3.916,-3.9158,-3.9199,-3.9195,-3.9333,-3.9351,-3.9232,-3.9233,-3.9234,0,-3.883,-3.887,-3.8896,-3.8919,-3.8934,-3.8971,-3.8994,-3.8992,-3.9016,-3.9045,-3.9074,-3.9111,-3.914,-3.9202,-3.921,-3.9243,-3.9236,-3.9283,-3.9241,-3.9241,-3.9235,-3.9233,-3.9236,-3.929,-3.9292,-3.9293,-3.9294,0,-3.8941,-3.8941,-3.8975,-3.901,-3.9037,-3.9064,-3.9089,-3.9109,-3.9109,-3.9136,-3.9175,-3.9198,-3.9243,-3.9279,-3.9311,-3.9322,-3.9307,-3.9307,-3.9318,-3.932,-3.9317,-3.9318,-3.9181,-3.9303,-3.9302,-3.9302,-3.9301,-3.9301,-3.902,-3.9053,-3.9076,-3.9114,-3.9133,-3.9156,-3.9187,-3.9196,-3.9229,-3.9266,-3.9262,-3.9305,-3.9326,-3.9367,-3.9381,-3.9414,-3.9398,-3.9414,-3.9418,-3.9422,-3.9426,-3.9313,-3.942,-3.9419,-3.9419,-3.9419,-3.9419,0,-3.9128,-3.9142,-3.9177,-3.9212,-3.9242,-3.9226,-3.9252,-3.9277,-3.9316,-3.9337,-3.9367,-3.9411,-3.9445,-3.9456,-3.9489,-3.9513,-3.9507,-3.9522,-3.952,-3.9522,-3.9439,-3.9426,-3.9526,-3.9526,-3.9526,-3.9526,-3.9526,-3.9526,-3.9188,-3.9243,-3.9246,-3.9309,-3.9322,-3.9365,-3.9381,-3.9402,-3.9419,-3.9469,-3.9498,-3.9505,-3.9522,-3.9556,-3.9586,-3.9588,-3.96,-3.9618,-3.9617,-3.9539,-3.9528,-3.9518,-3.9505,-3.9621,-3.9621,-3.9697,-3.9698,-3.9698]}]]